Find the Weather for any City, State  
or Zipcode, or Country:

West Linn, OR 97068 Weather
Local Radar
Local Radar  
Graphs, Details
Graphs and Gauges
Detailed Weather
Detailed Reports
Maps
Temperature
Heat Index
Windchill
Humidity
Radar
Dew Point
Wind
Visibility
Visible Satellite
Satellite
Fronts
Snow Depth
Jet Stream
Flight Rules
Forecast Maps
Temperature Forecast
Maximum Temperature Forecast
Minimum Temperature Forecast
Dewpoint Forecast
Prevalent Weather
12Hr Probability of Precip.
Sky Cover
Health Maps
UV Forecast
Air Quality
Peak Air Quality Index
Weather Station
Oregon Scientific WMR-968
Current Conditions [Select Refresh to Update]
Updated: 6:15pm on 7/30/14
(location)
Currently:
82.2°
Clear
Clear
High: 82.4° 
(5:47pm) 
Low: 60.1° 
(6:12am)
Wind: 6 mph from the NNW
Gust: 6 mph
Today's High Wind: 12 mph (3:06pm)
Humidity: 44%
Pressure: 30.02 in  (Steady) 
Pressure Rate: -0.016 in/hr
Dew Point: 58.2°
Wind Chill: 82.2°
Heat Index (feels like): 82.1°
Comfort Level: Warm
Temperature Rate:  0.48°/hr
 
5 Day Forecast
 
Wed Thu Fri Sat Sun
Clear Clear Clear Clear Clear
Clear Partly Cloudy Clear Clear Clear
89° 88° 90° 86° 82°
59° 59° 57° 59° 57°
Records and Normals
 
Temperature Forecast Normal Record
High 89° 83° 103°
(2003)
Low 59° 55° 47°
(1986)
 
Weather Advisories
No Advisories
Full Advisory Text...
Weather Map
Almanac
 
Sunrise:  
5:54am
Moonrise: 
9:42am
Moon Phase:
10%
Sunset: 
8:42pm
Moonset:  
10:12pm
 Star Chart...
Rainfall Totals
Hourly Rain 0.00 in
Daily Rain: 0.00 in
Monthly Rain: 0.87 in
Yearly Rain: 34.80 in
Normal Rain, month to date: 1.07 in
Normal Rain, year to date: 21.56 in
Local Weather Exchange® Network
Station ID City 
(Click for Map Location)
Neighborhood 
(Click for History)
Last Update (Date & Time) Temperature
 (°)
Dew
Point (°)
Humidity 
(%)
Wind 
(mph)
from the Wind Gust 
(mph) 
Pressure (in) Hourly
Rain (in)
KORWESTL3 West Linn Sunburst II 07/30 18:14:07 82.2 58.0 44 4 NNW 5 30.02 0.00
KORWESTL7 West Linn Hidden Springs 07/30 18:05:52 83.9 59.0 43 2 NNE 4 29.96 0.00
KORWESTL11 West Linn Ridgebrook Park 07/30 18:11:58 82.7 59.0 44 2 NNE 12 29.99 0.00
KORWESTL13 West Linn Vineland 07/30 18:14:04 84.2 39.0 20 0 North 0 27.44 0.00
KORWESTL1 West Linn Beaver Nation on Skyline Ridge 07/30 18:15:00 82.0 59.0 46 0 North 0 29.96 0.00
MORCO3 West Linn HADS WILLAMETTE RIVER BELOW OREGON CI OR US USGS 07/30 17:15:00 87.0 55.0 34 5 North 13 29.95 0.00
KORLAKEO12 Lake Oswego Marylhurst University 07/30 18:14:41 82.9 64.0 53 2 North 3 29.96 0.00
KORGLADS5 GLADSTONE GLADSTONE (USA) 07/30 18:15:03 88.4 61.0 40 3 NNW 5 29.70 0.00
KOROREGO14 Oregon City 221 Molalla Avenue 07/30 18:15:04 89.1 57.0 35 4 NNE 5 29.66 0.00
KOROREGO10 Oregon City Tower Vista 07/30 18:15:05 88.5 52.0 28 4 West 12 30.00 0.00
KORMILWA11 Milwaukie Oak Grove (GO BLAZERS) 07/30 18:15:04 86.6 59.0 39 3 North 5 29.95 0.00
KORGLADS6 Gladstone Gladstone - Gallweather.com 07/30 18:10:27 88.8 59.0 37 3 North 3 29.96 0.00
KORPORTL111 Portland Oakgrove PO 1E (Milwaukie) 07/30 18:15:02 87.2 63.0 44 8 North 8 29.95 0.00
KORGLADS4 Gladstone Gladstone - Go Beavers! 07/30 18:10:13 86.9 61.0 42 0 SW 6 29.92 0.00
KORLAKEO14 Lake Oswego Rivergrove 07/30 18:10:16 85.3 58.0 40 5 North 11 29.90 0.00
KOROREGO6 Oregon City Gaffney Lane Neighborhood 07/30 18:15:00 86.1 62.0 45 2 NNW 5 29.86 0.00
KORMILWA9 Milwaukie Milwaukie @ 205 Clackamas 07/30 18:10:19 88.3 39.0 18 4 NW 7 29.72 0.00
KORCLACK8 Clackamas Watkins Park 07/30 18:15:04 89.1 54.0 30 4 NNW 11 29.95 0.00
KORCLACK6 Clackamas CHPCS Falcons 07/30 18:13:45 92.1 61.0 36 0 ENE 0 29.89 0.00
KORTUALA9 Tualatin BartNW 07/30 18:10:15 87.4 61.0 41 0 WSW 5 29.97 0.00
KORTUALA2 Tualatin 3DAdams Weather 07/30 18:15:03 89.7 60.0 37 3 NNW 8 29.97 0.00
KORTUALA3 Tualatin Tualatin 07/30 18:14:13 87.3 50.0 28 2 NW 2 30.02 0.00
KORMILWA5 Milwaukie meso_neigh23 07/30 18:14:59 86.8 57.0 36 2 NNE 10 29.95 0.00
KORTIGAR19 Tigard La maison de Saison (Bonita) 07/30 18:14:59 86.4 58.0 39 4 NE 5 29.97 0.00
KORMILWA6 Milwaukie Logus-Stanley 07/30 18:15:04 85.3 58.0 39 4 SE 8 29.99 0.00
KOROREGO23 Oregon City Bradley Rd 07/30 18:10:18 80.5 61.0 51 0 NNE 4 29.96 0.00
KORCANBY8 Canby Quarter Moon Ranch Weather 07/30 18:14:33 86.5 60.0 41 7 NE 8 29.60 0.00
KORMILWA10 Milwaukie Milwaukie 07/30 18:15:03 85.9 59.0 40 6 West 10 30.00 0.00
KORPORTL227 Portland Ardenwald Station #1 07/30 18:13:08 86.4 58.0 38 1 North 7 29.97 0.00
KORPORTL172 Portland Portland Rowing Club 07/30 18:15:04 86.6 61.0 42 8 North 14 30.00 0.00
KORPORTL200 Portland South Burlingame 07/30 18:15:07 85.1 60.0 42 0 North 0 29.65 0.00
KORTUALA7 Tualatin Lake Forest 07/30 18:14:47 93.2 40.0 16 0 ESE 0 29.77 0.00
KORCANBY3 Canby West of Fair Grounds 07/30 18:15:07 85.5 56.0 37 3 South 3 29.98 0.00
KORWILSO8 Wilsonville Charbonneau Lakeside 07/30 18:15:03 91.0 56.0 31 4 SSE 10 29.38 0.00
KORPORTL216 Portland Smith School 07/30 18:14:55 85.6 59.0 41 1 SW 5 30.01 0.00
KUAO Aurora Official Station 07/30 17:53:00 89.0 56.0 32 10 North --- 30.00 ---
KPDX Portland Official Station 07/30 17:53:00 88.0 57.0 35 9 NNW --- 29.99 ---
KVUO Vancouver Official Station 07/30 17:53:00 88.0 54.0 31 13 NW --- 29.99 ---
KTTD Portland Troutdale Official Station 07/30 17:53:00 89.0 59.0 36 5 Variable --- 29.97 ---
Full Advisory Text
No Warnings

© Ambient Weather and Weather Underground
 Never base important decisions on this or any weather information obtained from the Internet
Updated Automatically by Ambient Weather's Virtual Weather Station  V13.01